Вернуться в каталог

STARLINK-34956

АктивенСвязьSSO
NORAD 65174·PAYLOAD·🇺🇸 United States

Запущен Aug 14, 2025 с Vandenberg Space Force Base

Loading…

Ближайшие Пролёты (ближайшие 24 часа)

TLE

СвежийSource: CelesTrak SupGP

Эпоха: Sep 15, 2026, 03:59 UTC

1 65174C 25175A   26258.16645833  .00000167  00000+0  51743-5 0  2588
2 65174  97.2849 127.1570 0001990  96.5210 176.4469 15.33450016    15

Отслеживайте STARLINK-34956 в реальном времени с AllMySat

Download on the App Store